Wind_Speed
13 12 11 14 13 13 10 7 5 6 8 9 10 12 13 14 13 10 7 9 11 11 12 12 12 12 11 11 10 10 10 11 11 11 12 13 13 13 14 16 17 19 20 17 15 12 14 19 25
20 17 16 18 17 13 7 6 5 6 7 9 10 13 12 10 8 9 12 12 11 11 12 12 12 12 11 11 11 12 13 14 14 14 14 14 14 13 14 15 16 17 18 20 21 20 16 12 11
18 20 20 19 17 9 1 6 5 7 9 11 11 10 8 7 13 14 13 13 13 14 14 14 14 14 13 13 14 15 15 14 15 15 15 16 17 16 14 14 15 16 18 19 20 21 22 22 16
9 11 14 13 10 8 6 6 6 8 10 10 7 7 12 15 15 15 16 16 16 16 16 16 16 16 16 17 17 17 17 15 14 13 14 15 15 15 14 13 13 15 16 17 19 20 20 23 25
9 10 11 13 10 7 6 6 7 10 7 4 7 15 15 16 16 17 17 17 17 17 17 17 17 17 18 18 18 18 17 16 16 14 14 13 13 13 14 14 13 13 15 16 17 17 18 20 20
5 6 8 9 7 6 7 7 5 1 6 11 16 17 17 18 18 19 18 18 18 18 17 17 17 17 17 18 18 18 18 18 17 15 15 14 14 13 14 14 13 12 12 14 15 15 16 17 16
3 4 5 5 3 3 2 6 9 12 17 18 18 18 19 19 19 19 19 19 19 18 17 16 15 14 15 15 15 16 17 18 18 18 17 16 15 14 13 14 13 12 11 11 12 13 13 14 14
9 8 9 13 14 12 11 13 17 18 18 19 19 18 19 18 19 19 18 18 18 18 17 15 15 14 14 13 13 14 15 17 17 18 19 19 17 15 14 14 13 12 11 11 11 11 10 11 10
12 12 11 15 15 14 16 18 19 19 19 18 17 17 18 18 18 17 17 17 17 17 17 16 16 15 15 14 13 13 14 15 17 18 19 20 20 19 17 16 14 14 13 11 11 11 11 10 8
15 17 15 18 18 17 17 17 17 17 16 15 14 14 14 16 17 17 16 16 15 16 16 16 16 17 17 16 14 14 14 13 14 16 17 18 20 20 20 18 17 15 13 12 12 12 11 11 8
19 19 19 18 17 15 15 15 15 14 13 12 11 10 12 15 16 15 15 15 15 16 17 17 17 17 16 17 16 15 15 14 13 14 16 16 17 18 18 18 18 18 17 16 14 13 12 11 10
19 19 18 16 14 12 12 12 12 11 10 8 7 9 10 11 12 14 14 14 15 16 17 17 17 17 17 17 17 16 15 14 14 14 14 15 16 16 17 17 17 16 16 16 15 14 14 13 12
18 17 16 15 12 10 10 7 6 5 6 5 5 8 9 12 13 13 14 14 14 15 17 19 20 19 18 18 17 16 16 16 16 15 15 15 15 16 17 17 17 16 16 17 17 16 15 15 13
17 17 15 13 11 10 8 8 6 3 3 4 6 7 9 11 12 12 13 13 14 15 17 18 19 20 19 19 18 17 17 16 16 17 18 17 15 15 15 16 16 15 15 15 15 15 16 15 15
16 17 16 12 9 8 7 7 7 6 6 6 6 6 7 8 10 11 12 12 13 15 15 16 16 17 18 19 19 19 18 17 18 18 18 18 19 18 17 16 16 16 15 15 15 15 15 15 15
11 12 12 12 12 11 10 9 9 8 8 9 8 8 8 8 8 10 11 12 13 14 15 16 16 15 16 16 17 18 19 19 19 19 19 19 19 20 19 18 18 18 17 16 15 15 16 16 16
8 9 9 10 10 10 10 10 9 8 8 7 7 8 9 8 9 10 12 12 14 15 16 17 17 18 17 19 20 20 20 20 20 21 21 21 21 20 20 20 20 20 20 19 18 18 17 16 17
6 7 8 8 8 8 8 8 7 7 7 7 7 8 8 9 10 10 12 14 15 16 17 19 20 20 21 21 22 22 22 23 23 23 23 22 23 23 23 22 22 21 21 21 21 20 20 20 20
5 6 6 7 6 7 7 7 8 7 7 7 7 8 8 11 12 13 15 17 18 19 20 22 24 24 24 25 25 26 26 27 27 28 28 28 28 27 26 25 24 24 24 25 24 24 23 23 22
8 9 9 9 11 11 10 9 8 8 7 8 8 8 9 10 13 16 18 19 21 21 22 23 25 27 27 28 29 29 28 29 30 30 31 32 32 31 31 30 29 28 27 26 26 27 27 27 27
12 12 12 13 14 12 12 11 10 9 8 9 11 11 12 12 13 15 18 20 21 23 25 25 26 27 28 29 29 30 30 28 28 29 31 32 33 33 33 34 33 33 32 30 29 29 29 29 29
12 12 12 12 13 12 11 12 12 12 12 11 11 12 14 14 13 15 18 19 22 23 25 26 27 27 27 29 30 30 30 28 26 26 29 31 32 31 33 34 34 35 35 35 33 32 32 32 32
10 10 11 11 12 13 13 13 11 11 13 14 14 12 13 15 17 17 20 22 23 24 24 25 27 29 28 29 31 30 29 29 27 27 27 31 32 30 31 31 33 34 34 34 35 35 34 33 34
9 9 9 10 11 12 13 13 14 11 10 12 13 15 16 17 18 19 20 21 22 23 24 25 26 27 29 30 31 32 32 31 30 30 31 32 32 30 30 32 33 33 33 33 33 35 35 36 36
7 6 6 8 8 10 13 16 17 16 15 15 16 16 16 19 21 23 23 22 20 20 21 23 26 28 29 30 30 30 32 33 33 33 33 32 32 34 34 32 31 32 32 32 33 34 36 37 37
3 3 4 4 6 10 12 14 14 16 17 19 18 17 16 18 21 24 25 27 25 24 22 23 24 26 27 30 33 32 31 31 32 33 32 32 31 33 34 36 34 31 33 34 33 33 34 35 36
1 1 3 6 9 10 11 12 15 15 16 17 17 17 19 20 22 24 26 27 28 28 29 28 26 25 26 29 33 33 32 31 30 30 30 31 31 31 33 35 39 36 32 33 35 35 33 32 34
2 3 3 5 7 11 13 13 14 15 16 17 18 19 20 20 22 24 26 27 28 28 31 30 27 26 26 29 32 34 33 32 31 30 30 30 30 32 34 34 36 39 38 35 34 36 36 33 33
5 5 8 10 12 13 16 19 17 17 19 22 22 23 24 24 26 27 29 29 29 29 31 31 30 28 27 28 31 34 36 35 33 32 32 31 30 31 33 35 36 38 41 39 36 36 38 37 36
11 12 13 15 16 18 19 23 23 21 22 24 23 25 27 26 27 30 32 32 32 33 33 34 33 31 29 29 30 32 35 37 35 34 33 33 32 32 32 33 33 36 40 41 41 38 36 39 38
Wind_Direction
235 242 259 280 289 291 299 306 296 334 336 333 328 321 328 333 336 342 360 46 53 41 31 25 17 13 12 12 14 21 24 21 20 12 9 4 357 352 349 358 5 9 13 9 355 330 302 280 271
247 249 259 270 277 283 315 282 306 312 322 320 327 328 332 343 2 53 66 60 45 39 27 19 16 16 13 12 18 23 25 24 22 19 19 15 9 0 358 357 356 3 6 13 20 20 11 344 312
237 240 248 261 265 265 208 258 285 310 320 324 332 338 356 30 74 60 56 47 37 29 26 23 19 15 15 15 16 16 15 13 12 10 14 16 14 11 4 358 356 2 3 6 13 15 24 27 18
186 200 218 230 254 254 233 270 299 312 318 330 346 20 74 72 61 54 47 41 37 32 27 20 17 14 12 11 13 13 9 9 7 5 7 13 15 12 8 10 1 357 0 3 5 8 15 16 19
161 181 208 226 216 226 241 277 304 311 325 37 63 89 79 69 61 56 52 47 41 34 28 24 21 19 18 18 20 20 16 13 7 3 5 7 7 11 10 13 12 6 4 1 1 5 8 10 17
168 200 226 246 239 258 278 293 304 359 85 98 96 83 75 70 65 61 55 49 43 38 34 31 30 30 29 28 24 21 19 19 16 11 8 5 5 10 12 14 16 14 10 7 3 358 2 11 14
182 214 253 229 221 195 105 97 99 100 102 100 90 84 77 70 64 59 55 49 43 40 36 34 36 35 34 33 31 27 24 24 22 19 14 9 7 8 13 17 14 15 17 12 4 1 359 4 9
96 92 87 95 97 90 93 99 102 103 102 95 87 82 73 65 57 52 49 45 44 41 41 37 32 30 30 30 29 28 27 24 21 20 19 17 14 10 13 18 16 12 11 7 6 6 5 2 2
89 87 85 89 90 92 99 103 103 102 99 95 90 80 65 55 49 47 45 41 40 41 38 36 32 29 25 24 21 20 20 19 18 17 16 17 18 17 13 16 18 15 13 7 3 3 1 359 347
84 86 88 88 92 97 106 105 101 100 97 93 85 72 56 45 40 38 36 33 33 31 28 27 24 22 21 19 13 7 8 13 14 14 13 13 13 13 15 15 15 15 15 12 5 359 350 345 331
83 85 86 89 94 104 110 98 98 95 96 86 71 56 42 33 30 28 26 25 23 21 20 17 15 14 14 12 9 3 0 2 7 7 9 9 10 11 12 15 18 18 15 12 10 5 359 349 335
83 85 89 94 97 104 105 95 90 87 80 69 53 36 29 26 26 23 20 18 17 17 16 14 10 6 5 3 2 360 354 353 356 359 1 3 6 8 9 11 15 18 19 17 13 5 2 358 344
86 90 91 90 93 95 98 97 83 72 60 34 27 20 17 21 22 19 16 15 12 11 9 10 10 6 2 359 357 355 353 348 346 348 354 360 0 4 6 7 10 14 16 13 9 8 4 360 354
84 86 88 92 89 85 89 92 91 80 62 33 26 13 14 15 16 15 14 11 6 3 5 5 4 4 4 3 359 354 350 347 343 343 346 349 352 356 357 357 359 5 11 10 8 3 1 0 356
87 81 78 84 87 79 77 76 71 62 49 42 26 20 14 13 9 5 4 2 356 356 356 355 358 355 358 360 0 357 352 349 344 342 342 343 344 344 344 345 345 351 354 357 358 357 356 355 351
99 97 88 89 87 87 80 78 75 62 54 45 34 22 18 16 6 354 354 349 349 344 343 345 345 345 347 345 345 351 351 351 346 342 338 339 339 338 336 332 333 336 338 342 345 344 342 342 341
98 99 99 89 85 80 75 71 64 62 56 50 39 28 23 10 1 354 341 341 337 338 336 336 334 335 333 330 333 334 338 340 340 340 339 336 333 330 328 328 326 325 327 331 332 333 334 332 329
103 100 88 78 75 68 63 66 51 39 28 16 8 3 352 343 338 333 328 325 325 325 325 323 321 322 318 318 319 318 321 321 322 323 322 324 325 326 326 322 319 318 316 317 318 319 320 322 323
114 97 88 74 59 53 52 31 32 14 13 2 359 349 342 330 328 326 321 320 319 317 317 312 313 312 310 311 311 311 311 311 311 311 314 313 313 314 315 316 317 315 312 309 308 309 311 313 315
95 87 78 72 69 68 64 62 53 48 21 17 12 1 352 340 332 327 326 323 320 320 317 316 314 312 310 310 309 308 307 307 307 306 305 303 303 305 307 308 309 311 310 309 306 304 304 304 306
94 89 85 82 76 71 63 59 53 56 51 24 14 8 360 353 343 331 328 326 325 324 323 323 321 317 317 316 317 317 314 313 314 311 306 303 301 300 298 297 299 301 302 303 303 303 302 300 298
99 92 90 88 80 77 68 52 45 39 37 35 21 4 355 354 352 341 334 330 331 332 331 329 326 325 321 320 319 319 317 318 320 316 313 311 309 303 300 297 295 294 295 297 299 299 299 298 296
99 92 86 82 83 79 77 73 59 43 40 31 24 13 360 353 348 342 338 338 335 334 331 328 326 326 324 320 315 313 314 315 319 320 317 315 313 309 302 300 297 296 294 294 294 294 294 293 294
98 88 79 69 60 61 65 62 59 62 44 32 22 10 8 7 358 356 353 350 345 342 336 331 326 325 322 322 321 315 312 311 312 317 320 322 317 310 305 303 302 299 298 296 293 292 292 293 293
107 87 68 53 51 46 44 39 35 31 32 21 12 11 9 6 6 3 2 0 355 344 338 332 327 325 322 318 317 317 314 308 308 311 317 317 313 313 312 309 304 301 298 295 294 293 293 293 292
115 63 36 24 22 36 31 33 34 28 22 19 15 6 4 5 3 1 359 358 355 348 341 333 328 324 321 319 320 320 317 313 307 308 311 312 308 307 309 307 305 305 305 303 299 298 297 298 296
206 254 356 358 357 1 1 6 7 5 10 8 10 6 0 357 356 354 353 353 353 347 345 340 335 327 319 315 317 320 318 315 311 309 311 311 308 306 306 305 306 305 303 303 304 304 302 302 299
221 240 298 325 330 330 329 336 338 340 346 350 350 351 350 349 350 350 349 347 347 344 340 338 331 324 318 316 314 315 316 315 312 309 311 309 309 309 308 304 302 305 305 306 306 306 306 305 302
248 280 299 305 313 316 320 319 325 331 339 344 342 340 340 344 344 346 348 345 343 341 339 336 332 330 326 317 312 311 311 312 311 309 309 308 307 307 307 306 306 304 304 305 305 305 307 306 306
264 280 290 298 305 308 316 312 320 327 330 332 330 332 333 332 335 339 342 342 342 341 340 337 332 329 329 321 314 310 309 311 313 312 310 308 307 306 306 305 304 304 302 304 304 303 303 306 306
Height
5901 5902 5903 5902 5905 5904 5905 5905 5904 5904 5904 5905 5905 5904 5904 5903 5903 5904 5901 5899 5899 5898 5897 5897 5896 5895 5894 5892 5891 5889 5887 5886 5885 5883 5880 5877 5874 5871 5868 5866 5863 5860 5859 5858 5857 5857 5855 5856 5856
5898 5900 5902 5900 5902 5903 5906 5903 5904 5904 5904 5904 5904 5903 5902 5902 5901 5901 5901 5901 5900 5899 5898 5898 5897 5895 5894 5892 5891 5889 5887 5885 5883 5882 5880 5878 5875 5872 5868 5865 5863 5862 5859 5857 5855 5853 5852 5851 5851
5895 5898 5900 5899 5899 5903 5904 5903 5903 5903 5903 5903 5903 5902 5902 5902 5902 5902 5902 5901 5901 5900 5899 5898 5897 5896 5895 5893 5891 5889 5887 5885 5883 5881 5879 5877 5874 5871 5869 5866 5864 5862 5859 5856 5854 5852 5851 5849 5847
5893 5896 5897 5897 5898 5900 5901 5901 5901 5902 5902 5903 5902 5902 5903 5903 5903 5903 5902 5902 5901 5901 5900 5899 5897 5896 5895 5893 5891 5888 5887 5885 5884 5882 5879 5876 5874 5873 5871 5868 5865 5862 5860 5857 5853 5851 5849 5847 5845
5893 5894 5894 5895 5898 5899 5899 5900 5901 5901 5902 5902 5902 5903 5904 5904 5905 5905 5904 5903 5903 5902 5901 5900 5898 5897 5895 5893 5891 5890 5888 5886 5884 5881 5879 5877 5875 5873 5870 5867 5865 5863 5860 5858 5855 5853 5851 5849 5847
5893 5895 5895 5896 5897 5897 5898 5899 5900 5901 5902 5903 5905 5906 5907 5907 5907 5907 5906 5905 5904 5903 5902 5901 5900 5898 5897 5895 5893 5891 5889 5886 5884 5881 5879 5876 5874 5871 5869 5866 5864 5863 5861 5859 5857 5854 5852 5850 5848
5893 5893 5894 5895 5896 5897 5897 5899 5901 5902 5904 5906 5907 5909 5910 5910 5910 5909 5908 5908 5906 5905 5904 5903 5901 5901 5899 5897 5896 5894 5891 5888 5886 5882 5879 5876 5873 5871 5868 5866 5864 5862 5860 5859 5857 5855 5853 5851 5849
5894 5894 5894 5895 5896 5898 5899 5901 5902 5904 5907 5908 5910 5911 5911 5911 5911 5910 5909 5908 5908 5907 5906 5905 5904 5902 5900 5899 5897 5895 5893 5890 5887 5884 5880 5877 5873 5871 5868 5865 5864 5862 5860 5858 5856 5855 5853 5851 5850
5895 5896 5897 5896 5898 5900 5901 5903 5905 5907 5909 5911 5912 5913 5913 5913 5912 5911 5911 5910 5909 5908 5907 5905 5904 5903 5901 5900 5898 5896 5894 5891 5888 5885 5882 5878 5875 5871 5868 5865 5863 5861 5858 5856 5854 5853 5852 5850 5849
5897 5897 5900 5899 5900 5902 5904 5906 5909 5912 5913 5913 5914 5914 5914 5913 5913 5912 5912 5911 5910 5909 5908 5907 5906 5903 5901 5900 5898 5896 5894 5891 5889 5886 5883 5879 5876 5873 5869 5866 5863 5861 5859 5856 5854 5852 5851 5849 5848
5899 5901 5901 5902 5903 5905 5907 5910 5913 5914 5914 5915 5915 5915 5915 5915 5914 5913 5913 5912 5911 5910 5909 5908 5906 5904 5902 5900 5897 5895 5893 5891 5888 5886 5883 5880 5877 5874 5871 5867 5864 5860 5857 5855 5853 5851 5849 5848 5846
5903 5904 5904 5905 5906 5907 5911 5913 5914 5915 5916 5916 5916 5917 5917 5915 5915 5914 5913 5912 5912 5911 5910 5908 5906 5904 5902 5900 5898 5896 5893 5891 5888 5886 5883 5880 5877 5875 5872 5869 5865 5862 5858 5856 5853 5850 5848 5846 5845
5906 5906 5907 5908 5909 5911 5914 5915 5915 5916 5917 5917 5917 5917 5916 5916 5916 5914 5914 5913 5912 5911 5910 5908 5906 5904 5902 5900 5897 5895 5892 5890 5888 5885 5883 5880 5877 5874 5872 5869 5866 5863 5860 5856 5853 5850 5848 5845 5844
5908 5910 5910 5911 5911 5913 5914 5915 5916 5917 5917 5918 5918 5917 5917 5917 5916 5915 5914 5913 5912 5911 5910 5908 5906 5904 5902 5899 5897 5894 5892 5889 5887 5885 5882 5879 5877 5874 5871 5869 5866 5863 5859 5856 5853 5850 5847 5845 5842
5911 5912 5912 5913 5913 5914 5915 5916 5917 5917 5918 5918 5918 5917 5917 5917 5916 5915 5914 5914 5913 5911 5910 5908 5906 5904 5902 5899 5897 5893 5891 5888 5886 5883 5881 5878 5876 5873 5870 5867 5865 5862 5859 5856 5853 5850 5846 5844 5841
5914 5914 5915 5915 5915 5916 5916 5917 5918 5918 5918 5918 5917 5917 5917 5917 5916 5914 5914 5912 5912 5910 5908 5906 5905 5903 5901 5898 5895 5893 5890 5887 5885 5882 5880 5877 5874 5871 5869 5866 5864 5861 5858 5854 5851 5849 5846 5843 5840
5915 5916 5917 5917 5917 5917 5918 5918 5918 5919 5919 5918 5917 5917 5917 5916 5915 5914 5912 5911 5910 5909 5907 5905 5903 5902 5900 5896 5894 5891 5889 5887 5884 5881 5878 5875 5872 5870 5867 5864 5861 5859 5856 5853 5850 5847 5844 5841 5838
5915 5917 5917 5917 5918 5918 5918 5919 5919 5919 5919 5918 5917 5916 5916 5915 5914 5913 5911 5910 5909 5907 5906 5903 5902 5900 5896 5895 5892 5889 5887 5884 5881 5877 5874 5871 5869 5866 5863 5861 5858 5855 5853 5850 5848 5845 5842 5839 5835
5916 5917 5917 5917 5917 5918 5918 5918 5918 5917 5917 5918 5917 5916 5915 5913 5912 5911 5909 5907 5906 5904 5903 5900 5898 5896 5893 5891 5888 5886 5883 5880 5877 5874 5871 5868 5864 5862 5859 5856 5853 5851 5849 5846 5843 5841 5838 5835 5832
5916 5916 5917 5918 5918 5918 5918 5918 5917 5917 5916 5916 5915 5914 5914 5912 5910 5907 5906 5905 5902 5900 5899 5897 5894 5891 5888 5886 5883 5880 5878 5875 5872 5870 5866 5862 5860 5857 5853 5851 5848 5846 5843 5841 5838 5835 5832 5829 5826
5917 5918 5919 5919 5919 5919 5919 5918 5918 5917 5917 5916 5914 5913 5912 5911 5910 5907 5905 5902 5900 5897 5895 5893 5890 5887 5884 5881 5878 5875 5872 5870 5867 5863 5859 5856 5853 5850 5847 5844 5841 5839 5836 5834 5831 5828 5825 5822 5820
5919 5919 5920 5920 5921 5920 5920 5920 5918 5917 5916 5916 5915 5913 5911 5910 5909 5907 5904 5901 5898 5896 5892 5888 5886 5883 5880 5877 5873 5870 5867 5864 5861 5858 5854 5850 5847 5843 5840 5837 5834 5831 5828 5826 5824 5821 5818 5815 5812
5920 5920 5920 5921 5921 5922 5922 5922 5920 5918 5916 5914 5913 5911 5909 5907 5906 5905 5902 5899 5895 5892 5889 5886 5882 5878 5875 5872 5868 5865 5862 5859 5856 5853 5849 5844 5841 5837 5833 5830 5827 5823 5820 5818 5815 5813 5810 5807 5804
5920 5920 5920 5920 5921 5921 5921 5921 5920 5918 5916 5914 5912 5909 5907 5905 5903 5901 5899 5895 5892 5888 5885 5881 5878 5875 5871 5867 5864 5860 5857 5854 5851 5847 5844 5840 5835 5831 5827 5823 5820 5816 5813 5809 5806 5803 5801 5798 5796
5919 5920 5920 5921 5921 5921 5920 5918 5916 5915 5915 5913 5911 5908 5906 5903 5900 5897 5895 5892 5889 5885 5882 5877 5873 5870 5866 5862 5858 5854 5850 5847 5844 5841 5838 5833 5828 5824 5821 5817 5813 5809 5805 5802 5799 5795 5792 5790 5787
5918 5919 5919 5919 5919 5919 5917 5916 5916 5914 5912 5910 5909 5907 5904 5901 5898 5895 5891 5888 5884 5880 5877 5873 5869 5865 5861 5857 5853 5849 5845 5841 5837 5834 5831 5826 5822 5818 5814 5810 5805 5802 5799 5796 5791 5788 5784 5781 5778
5917 5918 5919 5918 5917 5916 5916 5915 5913 5912 5910 5908 5906 5904 5901 5899 5896 5892 5888 5884 5879 5875 5871 5867 5863 5859 5855 5851 5847 5843 5838 5834 5831 5827 5824 5820 5816 5812 5808 5804 5801 5796 5791 5787 5785 5781 5777 5773 5769
5916 5917 5917 5916 5916 5914 5913 5913 5912 5910 5908 5907 5904 5902 5900 5897 5894 5890 5885 5881 5877 5872 5867 5863 5859 5854 5849 5845 5840 5836 5832 5827 5823 5819 5815 5812 5808 5805 5801 5797 5793 5789 5786 5781 5777 5773 5769 5765 5760
5913 5913 5913 5913 5913 5912 5910 5909 5908 5907 5905 5902 5900 5897 5895 5892 5889 5886 5882 5878 5874 5869 5864 5859 5853 5848 5844 5839 5834 5829 5825 5820 5815 5811 5807 5803 5799 5796 5793 5789 5786 5782 5778 5774 5770 5766 5762 5758 5753
5909 5909 5909 5908 5909 5907 5906 5905 5902 5901 5900 5898 5896 5893 5891 5888 5885 5881 5876 5872 5867 5862 5857 5852 5847 5843 5838 5833 5828 5823 5818 5813 5808 5804 5800 5795 5792 5788 5784 5780 5777 5774 5770 5766 5761 5757 5754 5750 5746